Location: *
(45.1961°N, 1.9694°E)
Time: 17:37:30
(UTC+00:00)

ERS-1 Rocket - Pass Details

Date: 25 August 2019
Orbit: 754 x 757 km, 98.5° (Epoch: 15 October)

Event Time Altitude Azimuth Distance (km) Brightness Sun altitude
Exits shadow 21:18:48 67° 162° (SSE) 816 2.8 -24.1°
Maximum altitude 21:19:30 89° 73° (ENE) 761 2.8 -24.2°
Drops below altitude 10° 21:24:33 10° 346° (NNW) 2,290 6.3 -24.8°
Sets 21:26:51 0° 347° (NNW) 3,219 7.2 -25.1°
